Regional Weather Roundup
Issued by NWS

Home | Current Version | Previous Version | Text Only | Print | Product List | Glossary On
Versions: 1 2 3 4 5 6 7 8 9 10 11 12 13 14 15 16 17 18 19 20 21 22 23 24 25 26 27 28 29 30 31 32 33 34 35 36 37 38 39 40 41 42 43 44 45 46 47 48 49 50
000
ASUS43 KLSX 251159
RWRMO

WEATHER SUMMARY FOR MISSOURI
NATIONAL WEATHER SERVICE SPRINGFIELD MO
600 AM CST SUN JAN 25 2015

NOTE: "FAIR" INDICATES FEW OR NO CLOUDS BELOW 12,000 FEET WITH NO
       SIGNIFICANT WEATHER AND/OR OBSTRUCTIONS TO VISIBILITY.
       CURRENT SKY AND/OR WEATHER CONDITIONS ARE NOT AVAILABLE FOR
       CHILLICOTHE AND FARMINGTON.

MOZ001>031-035>038-043-044-053-054-251300-
...NORTHERN AND WESTERN MISSOURI...

CITY           SKY/WX    TMP DP  RH WIND       PRES   REMARKS
KANSAS CTY INT CLOUDY    43  36  76 NW15G26   29.64S
6HR MIN TEMP:  43; 6HR MAX TEMP:  45; 6HR PCP:  0.02;

KANSAS C DTWN  CLOUDY    46  37  71 NW14G22   29.65R
6HR MIN TEMP:  46; 6HR MAX TEMP:  48; 6HR PCP: TRACE;

LEE`S SUMMIT   CLOUDY    45  38  76 NW20G30   29.64S
6HR MIN TEMP:  44; 6HR MAX TEMP:  47; 6HR PCP: TRACE;

ST JOSEPH      CLOUDY    40  35  83 NW26G33   29.66R WCI  29
6HR MIN TEMP:  40; 6HR MAX TEMP:  46; 6HR PCP:  0.01;

CHILLICOTHE      N/A     43  39  86 NW10      29.60R
6HR MIN TEMP:  43; 6HR MAX TEMP:  47; 6HR PCP:  0.02;

KIRKSVILLE     CLOUDY    41  41 100 SW5       29.55S FOG
6HR MIN TEMP:  39; 6HR MAX TEMP:  46; 6HR PCP:  0.07;


$$
MOZ066>068-077>081-088>096-101>105-251300-
...SOUTHWEST MISSOURI...

CITY           SKY/WX    TMP DP  RH WIND       PRES   REMARKS
SPRINGFIELD    CLOUDY    48  36  63 NW13G23   29.66S
6HR MIN TEMP:  48; 6HR MAX TEMP:  50; 6HR PCP: TRACE;

JOPLIN         CLOUDY    49  37  63 NW8       29.72F
6HR MIN TEMP:  48; 6HR MAX TEMP:  50;


$$
MOZ032>034-039>042-045>050-055>058-069>072-251300-
...CENTRAL MISSOURI...

CITY           SKY/WX    TMP DP  RH WIND       PRES   REMARKS
COLUMBIA       LGT RAIN  45  43  93 W10       29.58F
6HR MIN TEMP:  44; 6HR MAX TEMP:  49; 6HR PCP:  0.07;

JEFFERSON CITY CLOUDY    47  43  86 W8        29.60S
6HR MIN TEMP:  47; 6HR MAX TEMP:  53; 6HR PCP:  0.03;

ROLLA          CLOUDY    45  40  82 W13       29.59S
6HR MIN TEMP:  43; 6HR MAX TEMP:  49; 6HR PCP: TRACE;

SEDALIA        CLOUDY    46  41  82 W12       29.62R
6HR MIN TEMP:  46; 6HR MAX TEMP:  48; 6HR PCP:  0.03;

OSAGE BEACH    CLOUDY    46  39  76 SW9       29.63R

$$
MOZ051-052-059>065-251300-
...EAST CENTRAL MISSOURI...

CITY           SKY/WX    TMP DP  RH WIND       PRES   REMARKS
ST LOUIS INTL  CLOUDY    46  41  82 SW8       29.60F
6HR MIN TEMP:  46; 6HR MAX TEMP:  52; 6HR PCP:  0.04;

SPIRIT OF STL  CLOUDY    44  41  89 CALM      29.59F
6HR MIN TEMP:  43; 6HR MAX TEMP:  51; 6HR PCP:  0.01;

ST CHARLES     CLOUDY    40  39  97 CALM      29.59F
6HR MIN TEMP:  38; 6HR MAX TEMP:  48; 6HR PCP:  0.03;


$$
MOZ072>076-082>087-097>100-106>115-251300-
...SOUTH CENTRAL AND SOUTHEAST MISSOURI...

CITY           SKY/WX    TMP DP  RH WIND       PRES   REMARKS
CAPE GIRARDEAU CLOUDY    40  34  79 S7        29.69F
6HR MIN TEMP:  38; 6HR MAX TEMP:  43;

FARMINGTON     CLOUDY    45  34  65 MISG      29.65F
6HR MIN TEMP:  45; 6HR MAX TEMP:  50;

POPLAR BLUFF   CLOUDY    41  33  73 SW10      29.69S
6HR MIN TEMP:  37; 6HR MAX TEMP:  41;

WEST PLAINS    LGT RAIN  45  34  65 SW7       29.66S
6HR MIN TEMP:  44; 6HR MAX TEMP:  47; 6HR PCP: TRACE;


$$


USA.gov is the U.S. government's official web portal to all federal, state and local government web resources and services.